Location: Newark
(35.2672°N, 80.7344°W)
Time: 04:09:53
(UTC+00:00)

Tiros 1 - Pass Details

Date: 25 January 2020
Orbit: 631 x 664 km, 48.4° (Epoch: 17 February)

Event Time Altitude Azimuth Distance (km) Brightness Sun altitude
Rises 15:46:01 0° 188° (S) 2,907 11.2 29.9°
Reaches altitude 10° 15:49:08 10° 166° (SSE) 2,009 11.1 30.2°
Maximum altitude 15:51:52 16° 129° (SE) 1,676 10.7 30.5°
Drops below altitude 10° 15:54:37 10° 93° (E) 2,027 10.2 30.7°
Sets 15:57:47 0° 71° (ENE) 2,947 10.6 31.0°
